Campbell Airport

Jump to: basic info | weather | frequencies | runways | comments

Related pages: nearby airports | nearby navaids | notams | map

Basic information (top)

Codes: KC81 C81
Location: lon 42.324600, lat -88.074097, elev 788 ft / 240 m msl
Status: small_airport
Scheduled airline service: no
Links: Wikipedia Mobile

Weather (top)

Current conditions for Waukegan Regional Airport 11nm (20km) ENE (rec'd 2014/04/23 15:52Z):

KUGN 231552Z 05010KT 10SM CLR 06/M04 A3018 RMK AO2 SLP229 T00561039

Airport forecast for Kenosha Regional Airport 18nm (32km) NNE (rec'd 2014/04/23 12:21Z):

TAF KENW 231120Z 2312/2412 02006KT P6SM SKC 
     FM231500 05008KT P6SM BKN250 
     FM240000 08007KT P6SM OVC100 
     FM240800 10009KT P6SM -RA SCT035 OVC050 
     FM241100 11012KT 6SM -RA OVC035

Frequencies (top)

Verify before use: may be inaccurate or out of date.

A/D: 120.55 MHz (CHICAGO APP/DEP)
UNIC: 122.7 MHz (CTAF/UNICOM)

Runways (top)

06/24: 3,573 x 40 ft (1,089 x 12 m) — other (COP) — not lighted — threshold 24 displaced 301 ft (92 m)

09/27: 3,270 x 40 ft (997 x 12 m) — paved — lighted

Latest comments (top)

My aviation birthplace.: I did my Private Pilot training here. [read]

More... (top)

See also NOTAMs and nearby airports and navaids, or visit the Campbell Airport page at the main OurAirports website..